[[{"header":{"parameterUnit":"m.s-1","parameterCategory":2,"la1":30.2991,"la2":30.254,"lo1":-89.0895,"lo2":-89.0444,"dy":0.0017,"dx":0.0017,"nx":28,"ny":28,"refTime":"2023-09-03T21:00:00:Z","depth":"0","parameterNumber":2,"parameterNumberName":"U-component_of_CURRENTS"},"data":[0,0,0,0,0,0,0,0,0,0,0,0,0,0,0,0,0,0,0,0,0,0,0,0,0,0,0,0,0,0,0,0,0,0,0,0,0,0,0,0,0,0,0,0,0,0,0,0,0,0,0,0,0,0,0,0,0,0,0.1913,0.1913,0,0.1899,0.1898,0.1898,0.1882,0.1882,0.1882,0.1882,0.1856,0.1856,0.1855,0,0,0,0,0,0,0,0,0,0,0,0,0,0.1935,0.1934,0.1913,0.1913,0.1913,0.1899,0.1898,0.1898,0.1882,0.1882,0.1882,0.1882,0.1857,0.1856,0.1855,0,0,0,0,0,0,0,0,0,0,0,0,0,0.1922,0.1934,0.1913,0.1905,0.1904,0.1899,0.1898,0.1898,0.1882,0.1882,0.1882,0.1882,0.1857,0.1856,0.1855,0.1851,0,0,0.1852,0.1852,0,0,0,0,0,0,0,0,0.1922,0.192,0.1906,0.1905,0.1905,0.1894,0.1897,0.1882,0.1882,0.1888,0.1882,0.1882,0.1869,0.1867,0.1862,0.185,0.1849,0.1852,0.1851,0.1851,0.1851,0,0,0,0,0,0,0,0.1923,0.1921,0.1906,0.1906,0.1905,0.1905,0.1902,0.1894,0.1878,0.1888,0.1887,0.1888,0.1868,0.1863,0.1861,0.1849,0.1852,0.1851,0.1851,0.185,0.1862,0.1863,0,0,0,0,0,0,0.1928,0.1922,0.1906,0.1905,0.1915,0.1904,0.1902,0.1896,0.1878,0.1876,0.1889,0.1888,0.1865,0.1863,0.186,0.1876,0.1851,0.185,0.185,0.1861,0.1862,0.1863,0,0,0,0,0,0,0.1929,0.1927,0.1907,0.1915,0.1913,0.1904,0.1898,0.1896,0.1895,0.1879,0.1876,0.1891,0.1865,0.1862,0.1862,0.1874,0.185,0.1849,0.186,0.1862,0.1863,0.1894,0,0,0,0,0,0,0.1929,0.1927,0.1925,0.1915,0.1913,0.1909,0.1898,0.1895,0.1897,0.1895,0.188,0.1877,0.1864,0.1864,0.1861,0.1872,0.1848,0.1859,0.1861,0.1862,0.1892,0.1896,0.19,0,0,0,0,0,0.193,0.1926,0.1925,0.1924,0.191,0.191,0.1908,0.1901,0.1897,0.1899,0.1892,0.1878,0.1872,0.1863,0.186,0.1872,0.1858,0.186,0.1862,0.189,0.1895,0.1899,0,0,0,0,0,0,0.1935,0.1924,0.1923,0.1916,0.1918,0.1908,0.1909,0.1906,0.1901,0.19,0.1885,0.1882,0.1889,0.1878,0.1868,0.1882,0.1865,0.1866,0.1887,0.1892,0.1896,0.1897,0.1848,0,0,0,0,0,0.1936,0.193,0.1926,0.1923,0.1924,0.1919,0.1918,0.1915,0.191,0.1907,0.1897,0.1892,0.1894,0.1891,0.1888,0.189,0.1895,0.1898,0.1902,0.1905,0.1906,0.1934,0.1941,0.187,0.187,0.187,0,0,0.1936,0.1931,0.1927,0.1924,0.1923,0.1923,0.1918,0.192,0.1921,0.1906,0.1904,0.1905,0.1899,0.1905,0.1908,0.1897,0.1929,0.1908,0.1911,0.191,0.1937,0.1944,0.195,0.1871,0.1871,0.1871,0,0,0.1934,0.1932,0.1927,0.193,0.1933,0.1931,0.1934,0.193,0.1931,0.1933,0.1928,0.1937,0.1929,0.1932,0.1932,0.1956,0.1952,0.1958,0.1974,0.2002,0.2008,0.2013,0.2032,0.2038,0.1956,0.1957,0.1957,0,0.1937,0.1927,0.1928,0.1928,0.1933,0.1935,0.1938,0.1939,0.1936,0.1945,0.1937,0.195,0.1943,0.1961,0.1969,0.1965,0.1978,0.1955,0.2007,0.2012,0.2017,0.2035,0.2042,0.1958,0.1958,0.1958,0.1958,0,0.193,0.1927,0.1928,0.1927,0.1935,0.1938,0.1946,0.1956,0.196,0.1962,0.1984,0.1981,0.199,0.1993,0.1985,0.202,0.2018,0.2012,0.1994,0.2026,0.2043,0.205,0.1961,0.196,0.196,0.1959,0,0,0.1917,0.192,0.192,0.1922,0.1935,0.1938,0.1958,0.1974,0.1988,0.1995,0.2016,0.2026,0.2032,0.2033,0.2032,0.2051,0.2096,0.2046,0.2047,0.2063,0.2157,0.2148,0.2155,0.2103,0.2104,0.2105,0.2155,0,0.191,0.1909,0.1915,0.1919,0.1921,0.1943,0.1958,0.1979,0.1998,0.2019,0.2037,0.2051,0.2044,0.2053,0.2075,0.2093,0.2115,0.2082,0.2124,0.2125,0.2113,0.2163,0.2079,0.2116,0.2162,0.2163,0.2164,0,0.1895,0.1899,0.1899,0.1917,0.192,0.1926,0.1963,0.1977,0.202,0.2035,0.2067,0.2081,0.2116,0.2101,0.2155,0.2138,0.215,0.2161,0.2163,0.2147,0.213,0.209,0.2126,0.2092,0.2174,0.2173,0.2172,0,0.1876,0.1886,0.1884,0.1889,0.1909,0.1923,0.1942,0.1984,0.2,0.205,0.207,0.2115,0.2139,0.217,0.2199,0.2183,0.2258,0.2236,0.2239,0.2238,0.217,0.2161,0.2175,0.2274,0.2274,0.2274,0.2274,0,0.1857,0.1856,0.1874,0.187,0.1878,0.1908,0.1923,0.1955,0.1999,0.2024,0.2073,0.2109,0.216,0.2208,0.2223,0.2263,0.2281,0.2255,0.2258,0.2179,0.2171,0.214,0.2112,0.2276,0.2276,0.2275,0.2275,0,0.1826,0.1834,0.1833,0.1856,0.1861,0.187,0.19,0.1915,0.1967,0.2008,0.2027,0.2114,0.219,0.2236,0.2296,0.2293,0.2258,0.233,0.2232,0.2223,0.2183,0.2159,0.2041,0.1975,0.234,0.234,0.2341,0,0.1806,0.1801,0.1813,0.1809,0.1814,0.1829,0.1838,0.1887,0.1911,0.2012,0.2033,0.2131,0.2186,0.2279,0.2305,0.234,0.2264,0.2277,0.2228,0.2184,0.2159,0.2028,0.197,0.2149,0.2148,0.2146,0.2145,0,0.1775,0.1778,0.1777,0.177,0.177,0.1767,0.1795,0.1803,0.1876,0.1924,0.2002,0.2059,0.2172,0.2195,0.226,0.2266,0.2156,0.2255,0.2233,0.2036,0.1868,0.1804,0.2112,0.2135,0.2136,0.2137,0.2137,0.2138,0.1753,0.1743,0.174,0.1723,0.1722,0.1705,0.1684,0.1729,0.1757,0.1814,0.1926,0.1982,0.2086,0.2171,0.217,0.214,0.2089,0.2081,0.2064,0.1941,0.1844,0.2132,0.2146,0.2147,0.2148,0.2149,0.215,0,0.1718,0.1706,0.1695,0.1665,0.1633,0.165,0.1648,0.1619,0.163,0.1721,0.1779,0.1885,0.1925,0.1995,0.2029,0.1967,0.1829,0.1914,0.1713,0.1675,0.1967,0.193,0.1868,0.1868,0.1868,0.1868,0.1868,0.1868,0.17,0.1668,0.1651,0.1578,0.1555,0.149,0.1468,0.1453,0.1488,0.1526,0.1585,0.1665,0.1817,0.1885,0.186,0.1821,0.1673,0.1565,0.1564,0.18,0.1813,0.1826,0.1786,0.1695,0.1695,0.1177,0.1173,0.117]},{"header":{"parameterUnit":"m.s-1","parameterCategory":2,"la1":30.2991,"la2":30.254,"lo1":-89.0895,"lo2":-89.0444,"dy":0.0017,"dx":0.0017,"nx":28,"ny":28,"refTime":"2023-09-03T21:00:00:Z","depth":"0","parameterNumber":3,"parameterNumberName":"V-component_of_CURRENTS"},"data":[0,0,0,0,0,0,0,0,0,0,0,0,0,0,0,0,0,0,0,0,0,0,0,0,0,0,0,0,0,0,0,0,0,0,0,0,0,0,0,0,0,0,0,0,0,0,0,0,0,0,0,0,0,0,0,0,0,0,0.0164,0.0164,0,0.0121,0.012,0.012,0.0093,0.0093,0.0093,0.0092,0.0043,0.0042,0.0041,0,0,0,0,0,0,0,0,0,0,0,0,0,0.0195,0.0195,0.0164,0.0164,0.0163,0.0121,0.012,0.012,0.0093,0.0093,0.0093,0.0092,0.0043,0.0042,0.0041,0,0,0,0,0,0,0,0,0,0,0,0,0,0.017,0.0195,0.0164,0.0145,0.0143,0.0121,0.012,0.0119,0.0093,0.0093,0.0093,0.0092,0.0044,0.0042,0.004,0.0032,0,0,0.0035,0.0034,0,0,0,0,0,0,0,0,0.0171,0.0168,0.0149,0.0147,0.0144,0.0112,0.0113,0.009,0.0093,0.0111,0.0092,0.0092,0.0066,0.0063,0.0054,0.003,0.0028,0.0035,0.0034,0.0033,0.0032,0,0,0,0,0,0,0,0.0173,0.017,0.0147,0.0148,0.0145,0.0129,0.0125,0.0108,0.009,0.011,0.0108,0.0104,0.0065,0.0056,0.0053,0.0027,0.0035,0.0033,0.0032,0.0031,-0.0002,-0.0002,0,0,0,0,0,0,0.0181,0.0172,0.0148,0.0145,0.0158,0.0129,0.0125,0.0122,0.009,0.0085,0.0104,0.0103,0.0059,0.0055,0.0051,0.005,0.0033,0.0031,0.003,-0.0002,-0.0002,-0.0002,0,0,0,0,0,0,0.0182,0.0179,0.015,0.0158,0.0153,0.0129,0.0126,0.0122,0.0114,0.0086,0.0081,0.0101,0.0059,0.0053,0.0041,0.0048,0.003,0.0029,-0.0003,-0.0002,-0.0002,0.0042,0,0,0,0,0,0,0.0183,0.018,0.0181,0.0159,0.0153,0.0142,0.0126,0.0121,0.0112,0.011,0.0082,0.0077,0.0058,0.0044,0.0039,0.0045,0.0027,-0.0003,-0.0002,-0.0002,0.004,0.0044,0.0047,0,0,0,0,0,0.0184,0.0188,0.0182,0.0179,0.0156,0.0142,0.0138,0.0119,0.0112,0.0111,0.0094,0.0078,0.0043,0.0043,0.0037,0.0042,-0.0003,-0.0003,-0.0002,0.0039,0.0043,0.0047,0,0,0,0,0,0,0.0201,0.0185,0.0178,0.0176,0.0163,0.0138,0.0136,0.0123,0.0108,0.0108,0.008,0.0074,0.0066,0.0048,0.0048,0.0034,0.0017,0.0017,0.005,0.0054,0.0057,0.007,0.0026,0,0,0,0,0,0.0207,0.0206,0.0187,0.0186,0.0182,0.016,0.0152,0.0141,0.0124,0.0117,0.0097,0.0078,0.0063,0.0054,0.0037,0.0029,0.0012,0.0029,0.0032,0.0035,0.0041,0.0021,0.0023,-0.0,-0.0,-0.0,0,0,0.0212,0.0204,0.0203,0.019,0.0178,0.0178,0.0155,0.0149,0.015,0.0115,0.0111,0.0089,0.0063,0.0056,0.005,0.0042,0.0033,0.0036,0.0038,0.0043,0.0022,0.0024,0.0026,0.0,-0.0,-0.0,0,0,0.0228,0.0218,0.0225,0.0217,0.0205,0.0193,0.0194,0.0173,0.0166,0.0157,0.0135,0.0118,0.0093,0.0078,0.0067,0.0077,0.0051,0.007,0.0096,0.0077,0.0079,0.008,0.0064,0.0063,0.0071,0.0072,0.0072,0,0.0236,0.0241,0.0224,0.023,0.0228,0.0204,0.0212,0.0202,0.018,0.0178,0.0162,0.0129,0.0104,0.0099,0.01,0.0085,0.007,0.0085,0.0082,0.0083,0.0083,0.0066,0.0065,0.0074,0.0073,0.0073,0.0073,0,0.0256,0.0261,0.0265,0.0266,0.0262,0.0265,0.0251,0.025,0.0236,0.022,0.0209,0.0175,0.0155,0.0143,0.0123,0.0119,0.0106,0.0089,0.0074,0.0089,0.0069,0.0067,0.0077,0.0076,0.0075,0.0075,0,0,0.0274,0.0279,0.0281,0.0293,0.0282,0.0286,0.0292,0.0289,0.0298,0.0269,0.0275,0.0239,0.0216,0.0202,0.0174,0.0154,0.0141,0.0126,0.0124,0.0115,0.01,0.0098,0.0096,0.0124,0.0124,0.0123,0.0086,0,0.0296,0.0318,0.0313,0.0338,0.0349,0.0337,0.0348,0.0343,0.0327,0.0326,0.0291,0.0279,0.024,0.0231,0.0206,0.0161,0.0138,0.0153,0.0084,0.0082,0.0082,0.0094,0.0131,0.0101,0.0084,0.0083,0.0083,0,0.032,0.0332,0.036,0.0384,0.0389,0.04,0.0416,0.0422,0.0411,0.0397,0.0375,0.0342,0.0315,0.0275,0.0209,0.0221,0.0165,0.0124,0.0121,0.0104,0.0077,0.0082,0.0098,0.0041,0.008,0.008,0.008,0,0.0347,0.0369,0.0396,0.0401,0.0419,0.0436,0.0446,0.0443,0.0458,0.0439,0.044,0.0397,0.0384,0.0311,0.0228,0.0216,0.0154,0.0125,0.007,0.0069,0.0079,0.0079,0.0036,0.0072,0.0072,0.0072,0.0072,0,0.0374,0.0396,0.0413,0.0427,0.0469,0.047,0.0504,0.0507,0.0514,0.0542,0.048,0.0491,0.0392,0.0344,0.0252,0.0167,0.0171,0.008,0.0061,0.0095,0.0097,0.0031,-0.0019,0.0071,0.0071,0.0071,0.0072,0,0.0398,0.0407,0.0443,0.0471,0.0483,0.0514,0.0548,0.0574,0.057,0.0606,0.0604,0.0567,0.0509,0.0404,0.0295,0.021,0.0078,0.0079,0.013,0.0117,0.0008,-0.004,-0.0118,-0.0169,0.0012,0.0012,0.0012,0,0.0413,0.0434,0.0476,0.0502,0.0516,0.0554,0.0587,0.0601,0.0633,0.066,0.0689,0.0645,0.0634,0.0473,0.0321,0.0171,0.0079,0.0087,0.0065,0.0015,-0.0055,-0.0087,-0.0128,0.0095,0.0095,0.0096,0.0096,0,0.0442,0.0457,0.0486,0.0537,0.0577,0.0623,0.0671,0.0707,0.0742,0.0774,0.082,0.0815,0.0684,0.0568,0.0361,0.0243,0.005,0.009,0.0026,-0.0001,-0.0027,-0.0088,0.0105,0.0099,0.0099,0.0099,0.0099,0.0098,0.0465,0.0489,0.0527,0.0576,0.0624,0.0687,0.0727,0.0791,0.0859,0.0927,0.0929,0.0954,0.0799,0.0532,0.0358,0.0098,0.0065,0.0025,-0.0032,-0.0061,-0.0103,0.01,0.0079,0.0078,0.0078,0.0078,0.0077,0,0.0491,0.0515,0.0562,0.062,0.0671,0.0696,0.0781,0.083,0.092,0.1012,0.1058,0.1041,0.0819,0.0571,0.0227,0.0029,-0.0061,-0.0079,-0.0111,-0.0153,0.003,0.0043,0.0028,0.0028,0.0028,0.0028,0.0028,0.0028,0.0505,0.0543,0.0561,0.0641,0.0687,0.0753,0.0802,0.0892,0.0976,0.1094,0.1159,0.1203,0.1097,0.0479,0.0059,-0.0073,-0.023,-0.0243,-0.0348,-0.0206,-0.02,-0.0194,-0.0192,-0.0256,-0.0256,-0.0485,-0.0487,-0.0489]}],[{"header":{"parameterUnit":"m.s-1","parameterCategory":2,"la1":30.2991,"la2":30.254,"lo1":-89.0895,"lo2":-89.0444,"dy":0.0017,"dx":0.0017,"nx":28,"ny":28,"refTime":"2023-09-03T21:00:00:Z","depth":"2","parameterNumber":2,"parameterNumberName":"U-component_of_CURRENTS"},"data":[0,0,0,0,0,0,0,0,0,0,0,0,0,0,0,0,0,0,0,0,0,0,0,0,0,0,0,0,0,0,0,0,0,0,0,0,0,0,0,0,0,0,0,0,0,0,0,0,0,0,0,0,0,0,0,0,0,0,0.1887,0.1887,0,0.1878,0.1878,0.1878,0.1867,0.1867,0.1867,0.1867,0.1849,0.1849,0.1848,0,0,0,0,0,0,0,0,0,0,0,0,0,0.1899,0.1898,0.1887,0.1887,0.1887,0.1878,0.1878,0.1878,0.1867,0.1867,0.1867,0.1867,0.1849,0.1849,0.1848,0,0,0,0,0,0,0,0,0,0,0,0,0,0.1891,0.1898,0.1887,0.1882,0.1881,0.1878,0.1878,0.1878,0.1867,0.1867,0.1867,0.1867,0.1849,0.1849,0.1848,0.1844,0,0,0.1846,0.1846,0,0,0,0,0,0,0,0,0.1891,0.189,0.1882,0.1882,0.1882,0.1875,0.1876,0.1867,0.1867,0.1871,0.1867,0.1867,0.1858,0.1857,0.1853,0.1844,0.1843,0.1846,0.1845,0.1845,0.1845,0,0,0,0,0,0,0,0.1892,0.189,0.1882,0.1883,0.1882,0.1882,0.188,0.1874,0.1863,0.187,0.187,0.1872,0.1858,0.1853,0.1852,0.1842,0.1846,0.1845,0.1845,0.1845,0.1862,0.1863,0,0,0,0,0,0,0.1896,0.1891,0.1882,0.1882,0.1888,0.1882,0.188,0.1876,0.1863,0.1862,0.1872,0.1871,0.1855,0.1853,0.1852,0.1871,0.1845,0.1845,0.1844,0.1861,0.1862,0.1863,0,0,0,0,0,0,0.1896,0.1895,0.1882,0.1888,0.1886,0.1882,0.1877,0.1876,0.1878,0.1865,0.1863,0.1876,0.1855,0.1853,0.1856,0.1869,0.1844,0.1844,0.186,0.1861,0.1863,0.1894,0,0,0,0,0,0,0.1896,0.1895,0.1896,0.1888,0.1886,0.1887,0.1877,0.1876,0.188,0.1879,0.1868,0.1866,0.1854,0.1857,0.1855,0.1868,0.1843,0.1859,0.1861,0.1862,0.1891,0.1896,0.1899,0,0,0,0,0,0.1897,0.1895,0.1896,0.1895,0.1887,0.1888,0.1887,0.1882,0.188,0.1883,0.1879,0.1867,0.1866,0.1857,0.1855,0.1867,0.1858,0.186,0.1862,0.189,0.1895,0.1899,0,0,0,0,0,0,0.1901,0.1894,0.1894,0.1891,0.1894,0.1887,0.189,0.1888,0.1886,0.1887,0.1873,0.1871,0.1881,0.1872,0.1862,0.1879,0.1862,0.1864,0.1884,0.1889,0.1893,0.1893,0.1842,0,0,0,0,0,0.1903,0.19,0.1899,0.1898,0.1901,0.1898,0.1899,0.1897,0.1894,0.1893,0.1886,0.1883,0.1887,0.1885,0.1884,0.1889,0.1893,0.1898,0.1902,0.1905,0.1906,0.1933,0.1939,0.187,0.187,0.187,0,0,0.1904,0.1902,0.19,0.1899,0.19,0.1902,0.1898,0.1902,0.1905,0.1892,0.1894,0.1897,0.1893,0.1901,0.1905,0.1894,0.1928,0.1908,0.1911,0.1909,0.1936,0.1942,0.1948,0.1871,0.1871,0.187,0,0,0.1904,0.1905,0.1902,0.1907,0.1912,0.1911,0.1915,0.1914,0.1917,0.1922,0.1918,0.193,0.1925,0.1928,0.1929,0.1955,0.1951,0.1957,0.1974,0.2001,0.2007,0.2012,0.2029,0.2035,0.1957,0.1957,0.1957,0,0.1908,0.1901,0.1904,0.1907,0.1912,0.1916,0.192,0.1923,0.1924,0.1933,0.1928,0.1944,0.1939,0.1958,0.1967,0.1963,0.1976,0.1955,0.2006,0.2011,0.2016,0.2032,0.2039,0.1958,0.1958,0.1958,0.1958,0,0.1903,0.1903,0.1906,0.1908,0.1917,0.1921,0.193,0.1942,0.1948,0.1952,0.1977,0.1976,0.1987,0.1991,0.1984,0.2018,0.2016,0.201,0.1993,0.2025,0.204,0.2046,0.1961,0.196,0.196,0.1959,0,0,0.1892,0.1899,0.19,0.1903,0.1918,0.1922,0.1943,0.1961,0.1976,0.1986,0.2008,0.202,0.2028,0.203,0.203,0.2049,0.2092,0.2045,0.2045,0.206,0.2151,0.2137,0.2142,0.21,0.2102,0.2103,0.2149,0,0.1887,0.1889,0.1896,0.1903,0.1907,0.1929,0.1945,0.1967,0.1987,0.201,0.2029,0.2045,0.204,0.205,0.2072,0.209,0.2111,0.208,0.2119,0.212,0.2102,0.215,0.1959,0.1983,0.2155,0.2156,0.2157,0,0.1874,0.188,0.1883,0.1902,0.1907,0.1914,0.1952,0.1968,0.2011,0.2027,0.206,0.2074,0.2109,0.2096,0.215,0.2134,0.2145,0.2155,0.2157,0.2136,0.2118,0.1979,0.1988,0.2168,0.2167,0.2166,0.2165,0,0.1856,0.1869,0.187,0.1875,0.1898,0.1913,0.1933,0.1976,0.1992,0.2042,0.2063,0.2107,0.2132,0.2163,0.2192,0.2177,0.2248,0.2228,0.2224,0.2223,0.2063,0.2046,0.2264,0.2264,0.2264,0.2264,0.2264,0,0.1838,0.184,0.1861,0.1859,0.1868,0.19,0.1917,0.195,0.1994,0.2019,0.2068,0.2102,0.2153,0.2199,0.2213,0.2249,0.227,0.2239,0.2241,0.207,0.2053,0.2211,0.2204,0.2266,0.2265,0.2265,0.2265,0,0.1809,0.1819,0.1821,0.1847,0.1853,0.1864,0.1896,0.1912,0.1965,0.2005,0.2024,0.2108,0.218,0.2224,0.2282,0.2277,0.2306,0.2308,0.2104,0.2082,0.2255,0.2249,0.231,0.231,0.231,0.231,0.231,0,0.179,0.1787,0.1803,0.1801,0.1808,0.1826,0.1836,0.1886,0.191,0.2009,0.2029,0.2122,0.2169,0.2256,0.2264,0.229,0.2328,0.2133,0.207,0.2267,0.2263,0.2257,0.2252,0.1865,0.1862,0.1859,0.1856,0,0.1761,0.1765,0.1767,0.1764,0.1767,0.1765,0.1794,0.1803,0.1875,0.1919,0.1992,0.2041,0.2133,0.2088,0.214,0.213,0.2115,0.2076,0.2333,0.1896,0.1855,0.1849,0.1857,0.183,0.1833,0.1835,0.1836,0.1837,0.1739,0.1731,0.1732,0.1718,0.172,0.1705,0.1685,0.1725,0.175,0.1793,0.1899,0.1908,0.1947,0.1935,0.1891,0.1862,0.2016,0.1918,0.1923,0.1933,0.1886,0.1849,0.1813,0.1815,0.1817,0.1819,0.1821,0,0.1704,0.1697,0.1688,0.1663,0.1632,0.1652,0.165,0.1614,0.1617,0.1677,0.1716,0.1608,0.1584,0.1619,0.1534,0.1557,0.15,0.1495,0.1391,0.142,0.1446,0.137,0.1162,0.1159,0.1157,0.1155,0,0,0.1687,0.1657,0.1642,0.1574,0.1556,0.1492,0.1471,0.1442,0.1451,0.1424,0.1412,0.1514,0.1577,0.1345,0.1329,0.1224,0.1304,0.1174,0.1708,0.1616,0.1638,0.1705,0.1625,0,0,0,0,0]},{"header":{"parameterUnit":"m.s-1","parameterCategory":2,"la1":30.2991,"la2":30.254,"lo1":-89.0895,"lo2":-89.0444,"dy":0.0017,"dx":0.0017,"nx":28,"ny":28,"refTime":"2023-09-03T21:00:00:Z","depth":"2","parameterNumber":3,"parameterNumberName":"V-component_of_CURRENTS"},"data":[0,0,0,0,0,0,0,0,0,0,0,0,0,0,0,0,0,0,0,0,0,0,0,0,0,0,0,0,0,0,0,0,0,0,0,0,0,0,0,0,0,0,0,0,0,0,0,0,0,0,0,0,0,0,0,0,0,0,0.0085,0.0085,0,0.0043,0.0042,0.0042,0.0016,0.0016,0.0016,0.0016,-0.0033,-0.0034,-0.0035,0,0,0,0,0,0,0,0,0,0,0,0,0,0.0114,0.0114,0.0085,0.0085,0.0084,0.0043,0.0042,0.0042,0.0016,0.0016,0.0016,0.0016,-0.0032,-0.0034,-0.0035,0,0,0,0,0,0,0,0,0,0,0,0,0,0.0089,0.0114,0.0085,0.0067,0.0065,0.0043,0.0042,0.0042,0.0016,0.0016,0.0016,0.0016,-0.0032,-0.0034,-0.0035,-0.0044,0,0,-0.0041,-0.0042,0,0,0,0,0,0,0,0,0.0091,0.0088,0.007,0.0068,0.0066,0.0035,0.0035,0.0013,0.0016,0.0034,0.0016,0.0016,-0.001,-0.0014,-0.0022,-0.0047,-0.0049,-0.0041,-0.0042,-0.0043,-0.0044,0,0,0,0,0,0,0,0.0092,0.0089,0.0068,0.007,0.0067,0.0051,0.0047,0.003,0.0013,0.0032,0.0031,0.0027,-0.0011,-0.002,-0.0024,-0.005,-0.0041,-0.0043,-0.0044,-0.0045,-0.0078,-0.0078,0,0,0,0,0,0,0.01,0.0091,0.0069,0.0067,0.0079,0.005,0.0046,0.0045,0.0013,0.0008,0.0027,0.0026,-0.0017,-0.0021,-0.0025,-0.0026,-0.0043,-0.0045,-0.0046,-0.0078,-0.0078,-0.0078,0,0,0,0,0,0,0.0101,0.0099,0.0071,0.0078,0.0074,0.005,0.0048,0.0044,0.0037,0.0009,0.0004,0.0025,-0.0017,-0.0023,-0.0035,-0.0028,-0.0046,-0.0047,-0.0078,-0.0078,-0.0078,-0.0034,0,0,0,0,0,0,0.0102,0.0099,0.0101,0.0079,0.0074,0.0063,0.0048,0.0043,0.0035,0.0033,0.0006,0.0001,-0.0018,-0.0032,-0.0037,-0.0031,-0.0049,-0.0079,-0.0078,-0.0078,-0.0035,-0.0032,-0.0029,0,0,0,0,0,0.0103,0.0108,0.0102,0.0099,0.0077,0.0064,0.006,0.0042,0.0035,0.0035,0.0017,0.0002,-0.0033,-0.0033,-0.0039,-0.0033,-0.0079,-0.0078,-0.0078,-0.0037,-0.0033,-0.0029,0,0,0,0,0,0,0.012,0.0105,0.0098,0.0097,0.0084,0.006,0.0058,0.0046,0.0031,0.0031,0.0004,-0.0002,-0.001,-0.0028,-0.0028,-0.0042,-0.0058,-0.0059,-0.0025,-0.0022,-0.0018,-0.0006,-0.005,0,0,0,0,0,0.0125,0.0126,0.0107,0.0107,0.0103,0.0082,0.0074,0.0064,0.0047,0.004,0.0021,0.0002,-0.0013,-0.0022,-0.0039,-0.0046,-0.0063,-0.0047,-0.0044,-0.0041,-0.0035,-0.0054,-0.0052,-0.0076,-0.0076,-0.0076,0,0,0.0131,0.0124,0.0123,0.0111,0.01,0.01,0.0077,0.0071,0.0072,0.0038,0.0035,0.0013,-0.0013,-0.002,-0.0026,-0.0034,-0.0043,-0.004,-0.0037,-0.0033,-0.0054,-0.0051,-0.0049,-0.0076,-0.0076,-0.0076,0,0,0.0146,0.0138,0.0145,0.0138,0.0126,0.0115,0.0116,0.0096,0.0089,0.008,0.0059,0.0043,0.0017,0.0002,-0.0009,0.0001,-0.0024,-0.0005,0.0021,0.0002,0.0004,0.0005,-0.0011,-0.0011,-0.0004,-0.0004,-0.0004,0,0.0154,0.016,0.0144,0.015,0.0149,0.0125,0.0134,0.0124,0.0102,0.0101,0.0086,0.0053,0.0029,0.0023,0.0024,0.001,-0.0005,0.0009,0.0007,0.0008,0.0008,-0.0009,-0.0009,-0.0002,-0.0002,-0.0002,-0.0002,0,0.0174,0.0179,0.0183,0.0185,0.0181,0.0184,0.0171,0.017,0.0157,0.0142,0.0132,0.0099,0.008,0.0068,0.0047,0.0044,0.003,0.0014,-0.0001,0.0014,-0.0005,-0.0007,0.0001,0.0001,-0.0,-0.0001,0,0,0.0191,0.0197,0.0199,0.0211,0.0201,0.0204,0.021,0.0208,0.0217,0.019,0.0195,0.016,0.0139,0.0125,0.0098,0.0078,0.0066,0.0051,0.0049,0.004,0.0027,0.0024,0.0022,0.0049,0.0049,0.0049,0.0012,0,0.0212,0.0234,0.0229,0.0254,0.0265,0.0254,0.0265,0.0261,0.0245,0.0244,0.0211,0.0199,0.0162,0.0154,0.013,0.0086,0.0063,0.0078,0.001,0.0008,0.0008,0.0021,0.0035,0.0004,0.001,0.001,0.001,0,0.0235,0.0247,0.0275,0.0299,0.0304,0.0315,0.0331,0.0338,0.0326,0.0314,0.0293,0.0261,0.0235,0.0197,0.0133,0.0145,0.0091,0.005,0.0048,0.003,0.0003,-0.0011,0.0,0.0007,0.0007,0.0007,0.0007,0,0.0261,0.0284,0.031,0.0315,0.0334,0.0351,0.0361,0.0358,0.0373,0.0355,0.0356,0.0315,0.0303,0.0232,0.0151,0.014,0.0079,0.0051,-0.0003,-0.0004,-0.0012,-0.0014,0.0,0.0,0.0,0.0,0.0,0,0.0287,0.0309,0.0327,0.0342,0.0383,0.0384,0.0418,0.0422,0.0429,0.0456,0.0396,0.0406,0.0311,0.0263,0.0175,0.0092,0.0097,0.0007,-0.0011,0.0003,0.0004,-0.0012,-0.0013,-0.0001,-0.0001,-0.0001,-0.0,0,0.0311,0.032,0.0357,0.0384,0.0397,0.0428,0.0462,0.0487,0.0484,0.0518,0.0518,0.0481,0.0423,0.0322,0.0215,0.0134,0.0042,0.0006,0.0034,0.0019,-0.0037,-0.0035,-0.0058,-0.0058,-0.0059,-0.0059,-0.0059,0,0.0325,0.0346,0.0389,0.0415,0.0429,0.0468,0.05,0.0515,0.0545,0.0571,0.0598,0.0554,0.054,0.0384,0.0235,0.0088,0.0054,-0.0008,-0.0032,-0.0025,-0.0042,-0.0039,-0.0037,-0.0029,-0.0029,-0.0029,-0.0029,0,0.0352,0.0368,0.0397,0.0449,0.0489,0.0535,0.0581,0.0616,0.0649,0.0679,0.072,0.0713,0.0582,0.0448,0.0248,0.014,0.0016,-0.0012,-0.001,-0.0013,0.0,-0.0015,-0.0014,-0.0028,-0.0028,-0.0028,-0.0028,-0.0028,0.0374,0.0397,0.0436,0.0486,0.0534,0.0595,0.0635,0.0693,0.0756,0.0808,0.081,0.0796,0.0655,0.0401,0.0228,0.003,0.0037,-0.0048,-0.0048,-0.0047,-0.0033,-0.0021,-0.0051,-0.0051,-0.0052,-0.0052,-0.0052,0,0.0396,0.0422,0.0469,0.0527,0.0577,0.0605,0.0686,0.0723,0.0803,0.086,0.0891,0.0743,0.0608,0.0425,0.0149,-0.001,-0.0032,-0.008,-0.0067,-0.0066,-0.0065,-0.0052,-0.0076,-0.0076,-0.0077,-0.0077,0,0,0.0408,0.0446,0.0465,0.0544,0.0592,0.0655,0.0703,0.0769,0.0819,0.0859,0.0858,0.0862,0.0665,0.0457,0.0246,0.0084,0.0037,0.0042,0.008,0.0121,0.0123,-0.0026,-0.0002,0,0,0,0,0]}],[{"header":{"parameterUnit":"m.s-1","parameterCategory":2,"la1":30.2991,"la2":30.254,"lo1":-89.0895,"lo2":-89.0444,"dy":0.0017,"dx":0.0017,"nx":28,"ny":28,"refTime":"2023-09-03T21:00:00:Z","depth":"4","parameterNumber":2,"parameterNumberName":"U-component_of_CURRENTS"},"data":[0,0,0,0,0,0,0,0,0,0,0,0,0,0,0,0,0,0,0,0,0,0,0,0,0,0,0,0,0,0,0,0,0,0,0,0,0,0,0,0,0,0,0,0,0,0,0,0,0,0,0,0,0,0,0,0,0,0,0.1251,0.1251,0,0.1292,0.1292,0.1293,0.1329,0.133,0.1331,0.1331,0.1383,0.1384,0.1385,0,0,0,0,0,0,0,0,0,0,0,0,0,0.1194,0.1195,0.1251,0.1251,0.1252,0.1292,0.1292,0.1293,0.1329,0.133,0.1331,0.1331,0.1383,0.1384,0.1385,0,0,0,0,0,0,0,0,0,0,0,0,0,0.1224,0.1195,0.125,0.1276,0.1279,0.1292,0.1292,0.1293,0.1329,0.133,0.1331,0.1332,0.1383,0.1384,0.1385,0.1376,0,0,0.1389,0.139,0,0,0,0,0,0,0,0,0.1222,0.1226,0.1272,0.1274,0.1278,0.1308,0.1292,0.1322,0.1329,0.1308,0.1331,0.1332,0.136,0.1363,0.1366,0.1378,0.138,0.1389,0.139,0.1391,0.1391,0,0,0,0,0,0,0,0.122,0.1224,0.1265,0.1272,0.1276,0.1283,0.1288,0.1297,0.1327,0.131,0.1313,0.132,0.1361,0.1365,0.1368,0.1381,0.1389,0.139,0.1391,0.1392,0.147,0.1471,0,0,0,0,0,0,0.1218,0.1222,0.1264,0.1267,0.1253,0.1283,0.1289,0.1296,0.1327,0.1333,0.132,0.1322,0.1362,0.1366,0.137,0.1433,0.1391,0.1392,0.1393,0.1468,0.147,0.1471,0,0,0,0,0,0,0.1217,0.1221,0.1262,0.1247,0.1253,0.1284,0.1291,0.1296,0.1329,0.1335,0.1341,0.135,0.1363,0.1368,0.1405,0.1433,0.1392,0.1394,0.1467,0.1469,0.1471,0.1514,0,0,0,0,0,0,0.1215,0.122,0.1238,0.1247,0.1254,0.1288,0.1291,0.1297,0.1331,0.1335,0.1362,0.1366,0.1364,0.1403,0.1406,0.1434,0.1395,0.1465,0.1468,0.147,0.1511,0.1517,0.1522,0,0,0,0,0,0.1213,0.1228,0.1239,0.1245,0.1272,0.1289,0.1294,0.1317,0.1332,0.1349,0.1371,0.1367,0.1421,0.1405,0.1408,0.1437,0.1464,0.1467,0.147,0.1508,0.1516,0.1522,0,0,0,0,0,0,0.1213,0.1233,0.1245,0.1267,0.1287,0.1297,0.132,0.1332,0.1362,0.1376,0.1381,0.1386,0.143,0.1428,0.141,0.1468,0.1443,0.1447,0.1471,0.1478,0.1484,0.1479,0.1396,0,0,0,0,0,0.122,0.1241,0.1257,0.1278,0.1291,0.1311,0.1327,0.1342,0.1363,0.1378,0.1397,0.1419,0.1439,0.1455,0.147,0.1499,0.1498,0.1522,0.1527,0.1532,0.1532,0.1557,0.1565,0.1481,0.1481,0.1481,0,0,0.1226,0.1242,0.1254,0.1281,0.13,0.1318,0.1324,0.1356,0.1377,0.1378,0.1424,0.1441,0.1452,0.1487,0.1506,0.1493,0.1557,0.1536,0.154,0.1537,0.1561,0.1569,0.1576,0.1483,0.1483,0.1482,0,0,0.1238,0.1265,0.1283,0.1302,0.1336,0.1345,0.136,0.1387,0.1411,0.1448,0.1458,0.1493,0.1524,0.1536,0.1544,0.1591,0.1587,0.1604,0.163,0.1656,0.1663,0.1669,0.1679,0.1686,0.1607,0.1607,0.1607,0,0.1248,0.127,0.1292,0.1312,0.1333,0.1359,0.1381,0.1403,0.144,0.1464,0.1473,0.1532,0.1544,0.1581,0.16,0.1604,0.1614,0.1602,0.1663,0.1669,0.1674,0.1684,0.169,0.1609,0.1609,0.1609,0.1609,0,0.1262,0.1291,0.1306,0.1339,0.1364,0.139,0.1418,0.1454,0.1488,0.1507,0.1565,0.1584,0.1618,0.1632,0.1631,0.168,0.1674,0.1667,0.1642,0.1685,0.1692,0.1699,0.1613,0.1612,0.1611,0.1611,0,0,0.125,0.1305,0.1313,0.1335,0.1383,0.1399,0.1447,0.1488,0.1522,0.1567,0.1609,0.1652,0.1672,0.1682,0.1693,0.1716,0.1766,0.1714,0.1714,0.172,0.182,0.171,0.1706,0.1775,0.1777,0.1778,0.181,0,0.1258,0.1298,0.1325,0.1367,0.1389,0.1433,0.1469,0.1514,0.1558,0.1604,0.164,0.1681,0.1687,0.1713,0.1741,0.1762,0.1784,0.1757,0.1782,0.1782,0.1676,0.171,0.1782,0.1815,0.1816,0.1817,0.1818,0,0.1255,0.1286,0.1328,0.1384,0.1399,0.1431,0.1501,0.1537,0.1603,0.1638,0.1691,0.1717,0.1769,0.1761,0.1822,0.1809,0.182,0.1828,0.183,0.1714,0.1683,0.1764,0.1829,0.1828,0.1827,0.1826,0.1826,0,0.1225,0.1285,0.1321,0.1341,0.1406,0.1445,0.1487,0.1556,0.1589,0.1666,0.1698,0.1759,0.1797,0.1829,0.1859,0.1851,0.1911,0.1896,0.1804,0.1797,0.1866,0.1859,0.193,0.193,0.193,0.193,0.193,0,0.1205,0.1237,0.1316,0.1333,0.138,0.1438,0.1492,0.1544,0.1613,0.1648,0.1717,0.1749,0.182,0.1861,0.1875,0.1858,0.1928,0.1809,0.1798,0.1884,0.1879,0.1871,0.1863,0.1931,0.1931,0.1931,0.193,0,0.1159,0.1211,0.1255,0.1337,0.1366,0.1403,0.1486,0.1518,0.1597,0.1647,0.1673,0.1759,0.1812,0.1861,0.1912,0.1866,0.1866,0.1841,0.1931,0.1925,0.173,0.1725,0.1734,0.173,0.1727,0.1724,0.1722,0,0.1134,0.1155,0.1246,0.1274,0.1316,0.138,0.1415,0.15,0.1531,0.1639,0.1651,0.1735,0.1781,0.1756,0.1827,0.1835,0.1817,0.1797,0.1756,0.1722,0.1711,0.1711,0.171,0.1717,0.1717,0.1716,0.1715,0,0.1087,0.1132,0.117,0.1227,0.1274,0.131,0.1374,0.1381,0.1474,0.1559,0.1576,0.1598,0.1651,0.1685,0.1703,0.171,0.1797,0.1765,0.177,0.1732,0.1702,0.1695,0.1697,0.1705,0.1706,0.1707,0.1708,0,0.1056,0.107,0.1127,0.1163,0.1219,0.1228,0.1266,0.1296,0.133,0.1443,0.1453,0.1543,0.1632,0.1622,0.1646,0.1638,0.1612,0.1549,0.1565,0.1578,0.1514,0.1452,0.1368,0,0,0,0,0,0.1018,0.1023,0.1056,0.1088,0.1138,0.1166,0.1231,0.1269,0.1359,0.1328,0.1379,0.1418,0.1444,0.1499,0.1461,0.1597,0.1631,0.1546,0.157,0.1646,0.1658,0.1598,0,0,0,0,0,0,0.0992,0.1025,0.103,0.1016,0.1023,0.1061,0.1096,0.1156,0.114,0.1237,0.1257,0.1332,0.1383,0.1449,0.1434,0.1451,0.1435,0.1607,0.1604,0.1639,0.165,0.166,0.1602,0,0,0,0,0]},{"header":{"parameterUnit":"m.s-1","parameterCategory":2,"la1":30.2991,"la2":30.254,"lo1":-89.0895,"lo2":-89.0444,"dy":0.0017,"dx":0.0017,"nx":28,"ny":28,"refTime":"2023-09-03T21:00:00:Z","depth":"4","parameterNumber":3,"parameterNumberName":"V-component_of_CURRENTS"},"data":[0,0,0,0,0,0,0,0,0,0,0,0,0,0,0,0,0,0,0,0,0,0,0,0,0,0,0,0,0,0,0,0,0,0,0,0,0,0,0,0,0,0,0,0,0,0,0,0,0,0,0,0,0,0,0,0,0,0,0.0031,0.003,0,-0.0001,-0.0001,-0.0002,-0.0024,-0.0024,-0.0024,-0.0024,-0.0067,-0.0068,-0.0069,0,0,0,0,0,0,0,0,0,0,0,0,0,0.005,0.0049,0.0031,0.003,0.003,-0.0001,-0.0001,-0.0002,-0.0024,-0.0024,-0.0024,-0.0024,-0.0067,-0.0068,-0.0069,0,0,0,0,0,0,0,0,0,0,0,0,0,0.0032,0.0049,0.0031,0.0016,0.0014,-0.0001,-0.0001,-0.0002,-0.0024,-0.0024,-0.0024,-0.0024,-0.0066,-0.0068,-0.0069,-0.0075,0,0,-0.0074,-0.0075,0,0,0,0,0,0,0,0,0.0033,0.0031,0.0018,0.0017,0.0015,-0.0008,-0.001,-0.0027,-0.0024,-0.001,-0.0024,-0.0024,-0.0048,-0.0051,-0.0057,-0.0077,-0.0079,-0.0074,-0.0075,-0.0076,-0.0076,0,0,0,0,0,0,0,0.0034,0.0032,0.0018,0.0018,0.0016,0.0003,0.0,-0.0014,-0.0028,-0.0011,-0.0013,-0.0015,-0.0049,-0.0055,-0.0058,-0.0079,-0.0074,-0.0075,-0.0076,-0.0077,-0.0105,-0.0105,0,0,0,0,0,0,0.004,0.0033,0.0019,0.0017,0.0024,0.0003,-0.0,-0.0001,-0.0028,-0.0032,-0.0015,-0.0016,-0.0053,-0.0056,-0.006,-0.0061,-0.0076,-0.0077,-0.0078,-0.0105,-0.0105,-0.0105,0,0,0,0,0,0,0.0041,0.0039,0.002,0.0025,0.0021,0.0003,0.0002,-0.0002,-0.0007,-0.0031,-0.0035,-0.0017,-0.0053,-0.0058,-0.0069,-0.0063,-0.0078,-0.0079,-0.0105,-0.0105,-0.0105,-0.0067,0,0,0,0,0,0,0.0041,0.004,0.0042,0.0025,0.0021,0.0014,0.0002,-0.0002,-0.0009,-0.001,-0.0034,-0.0038,-0.0054,-0.0066,-0.007,-0.0065,-0.008,-0.0105,-0.0105,-0.0105,-0.0069,-0.0066,-0.0063,0,0,0,0,0,0.0042,0.0046,0.0042,0.004,0.0024,0.0015,0.0012,-0.0003,-0.0008,-0.0009,-0.0024,-0.0037,-0.0067,-0.0067,-0.0072,-0.0067,-0.0106,-0.0105,-0.0105,-0.007,-0.0066,-0.0063,0,0,0,0,0,0,0.0053,0.0043,0.0039,0.0039,0.0029,0.0011,0.001,0.0,-0.0012,-0.0013,-0.0035,-0.004,-0.0048,-0.0063,-0.0063,-0.0075,-0.0089,-0.0089,-0.006,-0.0057,-0.0054,-0.0044,-0.0082,0,0,0,0,0,0.0058,0.0059,0.0046,0.0046,0.0043,0.0028,0.0022,0.0014,0.0,-0.0005,-0.0021,-0.0038,-0.005,-0.0058,-0.0072,-0.0078,-0.0093,-0.0079,-0.0076,-0.0073,-0.0068,-0.0084,-0.0082,-0.0103,-0.0103,-0.0103,0,0,0.0061,0.0057,0.0057,0.0049,0.0041,0.0041,0.0024,0.0019,0.0021,-0.0008,-0.0011,-0.0028,-0.005,-0.0056,-0.0061,-0.0068,-0.0075,-0.0073,-0.007,-0.0067,-0.0084,-0.0082,-0.008,-0.0103,-0.0103,-0.0103,0,0,0.0072,0.0067,0.0073,0.0068,0.006,0.0052,0.0053,0.0038,0.0033,0.0027,0.0009,-0.0004,-0.0025,-0.0037,-0.0046,-0.0037,-0.006,-0.0043,-0.0021,-0.0037,-0.0035,-0.0034,-0.005,-0.005,-0.0042,-0.0042,-0.0042,0,0.0077,0.0082,0.0072,0.0077,0.0077,0.006,0.0067,0.0061,0.0044,0.0044,0.0031,0.0005,-0.0015,-0.0019,-0.0018,-0.003,-0.0044,-0.0031,-0.0033,-0.0032,-0.0031,-0.0048,-0.0049,-0.004,-0.0041,-0.0041,-0.0041,0,0.009,0.0096,0.0099,0.0103,0.0102,0.0104,0.0097,0.0097,0.0088,0.0077,0.007,0.0043,0.0029,0.0019,0.0002,-0.0001,-0.0014,-0.0026,-0.0039,-0.0026,-0.0045,-0.0047,-0.0038,-0.0038,-0.0039,-0.0039,0,0,0.0099,0.0108,0.0109,0.0121,0.0117,0.0121,0.0128,0.0129,0.0137,0.0117,0.0124,0.0096,0.0079,0.0068,0.0045,0.0029,0.0018,0.0005,0.0004,-0.0007,-0.0017,-0.0017,-0.0019,0.0005,0.0005,0.0005,-0.0032,0,0.0113,0.0132,0.0131,0.0154,0.0164,0.0159,0.0171,0.0171,0.016,0.0162,0.0137,0.0129,0.0099,0.0092,0.0073,0.0035,0.0015,0.0029,-0.0031,-0.0033,-0.0031,-0.002,0.0004,-0.0034,-0.0034,-0.0034,-0.0034,0,0.0127,0.0139,0.0163,0.0189,0.0195,0.0207,0.0225,0.0233,0.0228,0.022,0.0205,0.018,0.0161,0.0129,0.0075,0.0085,0.0037,0.0003,0.0001,-0.0013,-0.0036,-0.005,-0.0038,-0.0037,-0.0037,-0.0037,-0.0037,0,0.0142,0.0165,0.0189,0.0194,0.0217,0.0234,0.0248,0.025,0.0265,0.0255,0.0258,0.0225,0.0217,0.0157,0.0088,0.0079,0.0025,0.0003,-0.0043,-0.0044,-0.005,-0.0051,-0.0042,-0.0042,-0.0042,-0.0042,-0.0041,0,0.0156,0.0176,0.0201,0.0214,0.0252,0.026,0.0293,0.0299,0.0312,0.0334,0.0291,0.0298,0.0223,0.0182,0.0107,0.0036,0.0039,-0.0035,-0.0051,-0.0034,-0.0033,-0.0052,-0.0052,-0.0043,-0.0043,-0.0042,-0.0042,0,0.0165,0.0179,0.0212,0.0245,0.0261,0.0288,0.033,0.0352,0.0357,0.0385,0.0387,0.0359,0.0306,0.0224,0.0133,0.007,-0.0007,-0.0039,-0.0007,-0.0021,-0.0074,-0.0073,-0.0093,-0.0094,-0.0094,-0.0094,-0.0094,0,0.017,0.0188,0.0236,0.026,0.0277,0.0317,0.0348,0.0373,0.0396,0.0423,0.0442,0.0406,0.0372,0.0254,0.0158,0.0022,-0.0006,-0.0051,-0.0072,-0.0065,-0.0079,-0.0077,-0.0075,-0.0095,-0.0095,-0.0095,-0.0095,0,0.0179,0.0198,0.0225,0.0275,0.0315,0.036,0.0405,0.0429,0.0464,0.0473,0.0487,0.0426,0.0371,0.0266,0.0165,0.0063,-0.0022,-0.0054,-0.0054,-0.0075,-0.0066,-0.0079,-0.0077,-0.0095,-0.0095,-0.0095,-0.0095,0,0.0186,0.0205,0.0242,0.0288,0.0339,0.0389,0.0414,0.0452,0.0482,0.0513,0.052,0.0456,0.0427,0.0288,0.0195,0.0098,0.006,0.0013,0.0007,0.0007,0.0042,0.0069,0.0073,0,0,0,0,0,0.019,0.0209,0.025,0.0301,0.0353,0.0385,0.0447,0.0468,0.0507,0.0522,0.0523,0.047,0.0348,0.0297,0.02,0.0169,0.003,0.0049,-0.003,-0.0099,-0.0099,-0.0075,0,0,0,0,0,0,0.0191,0.0225,0.0244,0.0303,0.034,0.04,0.0441,0.0472,0.0479,0.0505,0.0444,0.043,0.0309,0.0401,0.0192,0.0165,0.0097,-0.0003,-0.0006,-0.01,-0.0099,-0.0099,-0.0074,0,0,0,0,0]}]]